Satellite-Ground Cal/Val Site Overpasses Predictions

Prediction of Satellite NPP Overpassing Cal/Val Site: Antarctic Dome C

Ground Cal/Val Site Location: Latitude: -75.10, Longitude: 123.35; Satellite-Ground Site NADIR distance within 100 km.

Table of predicted overpasses for the next 14.0 days since TLE Epoch: 6/2/2017
Interval Starting Time Ending Time Minimum Distance Time Minimum Distance (km)
1 06/03/2017 07:31:15 06/03/2017 07:31:44 06/03/2017 07:31:30 3.39
2 06/06/2017 14:54:41 06/06/2017 14:55:10 06/06/2017 14:54:56 20.35
3 06/07/2017 14:36:00 06/07/2017 14:36:14 06/07/2017 14:36:07 86.55
4 06/08/2017 07:37:31 06/08/2017 07:37:59 06/08/2017 07:37:45 33.64
5 06/09/2017 07:18:47 06/09/2017 07:19:05 06/09/2017 07:18:56 76.49
6 06/11/2017 15:01:01 06/11/2017 15:01:24 06/11/2017 15:01:13 57.37
7 06/12/2017 14:42:10 06/12/2017 14:42:35 06/12/2017 14:42:22 51.82
8 06/13/2017 07:43:51 06/13/2017 07:44:12 06/13/2017 07:44:01 68.85


NCC Satellite Cal/Val Overpasses Prediction Service
